User: anonymous   Login
Location: Gradaro
(45.0833°N, 10.8833°E)
Time: 17:50:37
(UTC+00:00)
Language:

Cosmos 2327 Rocket - Orbit

View from above orbital plane
View from above orbital plane
View from above satellite
View from above satellite

Ground track
Ground track

The orbit data is extracted from the following two-line orbital elements,

1 23774U 96004B   21127.84366143  .00000030  00000-0  15699-4 0  9997
2 23774  82.9826  31.6703 0043309 334.2465  25.6535 13.76550241270993
Epoch (UTC): 07 May 2021 20:14:52
Eccentricity: 0.0043309
inclination: 82.9826°
perigee height: 944 km
apogee height: 1008 km
right ascension of ascending node: 31.6703°
argument of perigee: 334.2465°
revolutions per day: 13.76550241
mean anomaly at epoch: 25.6535°
orbit number at epoch: 27099

The dashed part of the orbit path shows where the satellite is in the earth's shadow,  

DLR